Weather in Krasnopol'ye

Russia / Volgograd Oblast     50°29′58″N   41°27′56″E
temp.,
°C
wind,
m/s
gust,
m/s
humid.,
%
clouds,
%
prec.,
mm/h
press.,
hPa
HPBL,
m
27 september, mon
mon2700:00+8wnw7138572 0.0 1008651
03:00+9nw7118399 0.3 1009800
06:00+9nw7138992 0.1 1010658
09:00+9nnw61089100 0.4 1011663
12:00+10nnw698493 0.3 1013757
15:00+10nnw598570 0.4 1015649
18:00+9n5108566 0.0 1016441
21:00+10n4981100 0.0 1017424
28 september, tue
tue2800:00+9nnw3784100 0.0 1018248
03:00+7n3493100 0.0 1018114
06:00+8n3692100 0.1 1019257
09:00+9ne4682100 0.1 1021481
12:00+9nne4681100 0.1 1022502
15:00+10n3570100 0.1 1023671
18:00+8ene6879100 0.0 1026543
21:00+7ene4881100 0.0 1027692
29 september, wed
wed2900:00+7ne4767100 0.0 1029702
03:00+6nne366413 0.0 1029395
06:00+3nne48725 0.0 1030158
09:00+7ne575817 0.0 1031682
12:00+10ne56459 0.0 10311322
15:00+11ne67405 0.0 10301552
18:00+7ne37525 0.0 1031133
21:00+5nne38605 0.0 1032143
30 september, thu
thu3000:00+4ne37684 0.0 1033129
03:00+3ne35715 0.0 103380
06:00+2ne34755 0.0 103464
09:00+7ne35544 0.0 1035392
12:00+11ne44410 0.0 10341434
15:00+12ne33371 0.0 10341730
18:00+8ne33495 0.0 103428
21:00+6ne33574 0.0 103534
1 october, fri
fri100:00+5ne22620 0.0 103611
03:00+4nne22665 0.0 103610
06:00+4nne22695 0.0 103611
09:00+9nne22525 0.0 1036344
12:00+12ne33435 0.0 10361425
15:00+13ne33415 0.0 10351525
18:00+9ne22555 0.0 103514
21:00+8ne22635 0.0 103625